Location: Drocourt
(49.0571°N, 1.7669°E)
Time: 14:10:13
(UTC+00:00)

Lacrosse 4 Rocket - Pass Details

Date: 09 February 2023
Orbit: 535 x 608 km, 68.0° (Epoch: 21 March)

Event Time Altitude Azimuth Distance (km) Brightness Sun altitude
Rises 17:50:18 0° 333° (NNW) 2,852 5.2 -8.3°
Reaches altitude 10° 17:53:56 10° 4° (N) 1,929 3.9 -8.8°
Maximum altitude 17:55:43 12° 28° (NNE) 1,774 3.5 -9.1°
Drops below altitude 10° 17:57:30 10° 53° (NE) 1,907 3.5 -9.4°
Enters shadow 17:57:31 10° 53° (NE) 1,909 3.5 -9.4°
